Flag for Brazil Weather past 2 weeks in Campinas, São Paulo, Brazil

Now
77 °F

Clear.


Feels Like: 78 °F
Forecast: N/A
Wind: 1 mph from Northwest

Location: Campinas Aeroporto

Current Time: Aug 2, 2015 at 6:32:31 PM

Latest Report: Aug 2, 2015 at 6:00 PM


Visibility: 10 mi

Pressure: 30.07 "Hg (27.80 "Hg at 686m altitude)

Humidity: 39%

Dew point: 50 °F

Location of CampinasLocation

Historic Weather in Campinas — Graph

°F

Campinas temperature yesterday

Maximum temperature yesterday: 81 °F (at 3:00 PM)
Minimum temperature yesterday: 61 °F (at 6:00 AM)
Average temperature yesterday: 69 °F

Past Weeks' High & Low Weather Summary

 TemperatureHumidityPressure
High81 °F (Jul 24, 3:00 PM)100% (Jul 24, 11:00 PM)30.30 "Hg (Jul 24, 11:00 PM)
Low48 °F (Jul 25, 6:00 PM)27% (Jul 28, 5:00 PM)30.04 "Hg (Jul 21, 3:00 AM)
Average66 °F67%30.16 "Hg
* Reported Jul 18 5:00 PM — Aug 2 5:00 PM, Campinas, Weather by CustomWeather, © 2015

Note: Actual official high and low records may vary slightly from our data, if they occured in-between our weather recording intervals... More about our weather records

Advertising

Campinas weather history for previous 24 hours

 ConditionsComfort  
Time TempWeatherWind HumidityBarometerVisibility
5:00 PM
Sun, Aug 2
79 °FClear.7 mph34%30.07 "Hg10 mi
4:00 PM81 °FPassing clouds.7 mph30%30.07 "HgN/A
3:00 PM81 °FSunny.8 mph30%30.09 "Hg10 mi
2:00 PM81 °FSunny.9 mph32%30.09 "Hg10 mi
1:00 PM79 °FSunny.9 mph34%30.12 "Hg10 mi
12:00 PM77 °FPassing clouds.10 mph36%30.15 "HgN/A
11:00 AM75 °FSunny.9 mph44%30.18 "Hg10 mi
10:00 AM72 °FSunny.8 mph50%30.18 "Hg10 mi
9:00 AM66 °FClear.5 mph60%30.18 "Hg5 mi
8:00 AM59 °FClear.7 mph72%30.15 "Hg5 mi
7:00 AM57 °FClear.9 mph77%30.12 "Hg5 mi
6:00 AM57 °FSunny.7 mph77%30.09 "Hg10 mi
5:00 AM57 °FClear.9 mph77%30.09 "Hg10 mi
4:00 AM59 °FClear.8 mph72%30.09 "Hg10 mi
3:00 AM61 °FClear.8 mph72%30.12 "Hg10 mi
2:00 AM61 °FClear.9 mph68%30.12 "Hg10 mi
1:00 AM63 °FClear.9 mph64%30.15 "Hg10 mi
12:00 AM63 °FClear.8 mph64%30.15 "Hg10 mi
11:00 PM
Sat, Aug 1
64 °FClear.9 mph60%30.15 "Hg10 mi
10:00 PM66 °FClear.9 mph52%30.12 "Hg10 mi
9:00 PM64 °FClear.9 mph60%30.12 "Hg10 mi
8:00 PM68 °FClear.7 mph53%30.12 "Hg10 mi
7:00 PM72 °FClear.6 mph41%30.12 "Hg10 mi
6:00 PM75 °FClear.6 mph39%30.12 "Hg10 mi
Weather by CustomWeather, © 2015

See weather overviewHow to use our weather pages